Location: Asni�res
(49.1337°N, 2.3555°E)
Time: 02:52:14
(UTC+00:00)

SJ-6B - Pass Details

Date: 16 October 2021
Orbit: 509 x 579 km, 97.5° (Epoch: 27 November)

Event Time Altitude Azimuth Distance (km) Brightness Sun altitude
Exits shadow 19:21:53 31° 3° (N) 963 4.1 -24.1°
Drops below altitude 10° 19:24:01 10° 353° (N) 1,796 5.7 -24.5°
Sets 19:26:08 0° 350° (N) 2,680 6.7 -24.8°
